TimeCST,TemperatureF,Dew PointF,Humidity,Sea Level PressureIn,VisibilityMPH,Wind Direction,Wind SpeedMPH,Gust SpeedMPH,PrecipitationIn,Events,Conditions,WindDirDegrees,DateUTC
12:56 AM,45.0,45.0,100,30.04,6.0,NW,5.8,-,0.00,,Overcast,310,2013-01-17 06:56:00
1:47 AM,44.6,44.6,100,30.04,10.0,West,4.6,-,N/A,,Overcast,270,2013-01-17 07:47:00
1:56 AM,44.1,44.1,100,30.04,9.0,West,4.6,-,N/A,,Overcast,280,2013-01-17 07:56:00
2:56 AM,44.1,44.1,100,30.04,8.0,West,5.8,-,N/A,,Overcast,280,2013-01-17 08:56:00
3:56 AM,43.0,42.1,97,30.05,8.0,West,12.7,21.9,0.00,Rain,Light Rain,280,2013-01-17 09:56:00
4:04 AM,42.8,41.0,93,30.05,7.0,West,10.4,23.0,0.00,Rain,Light Rain,280,2013-01-17 10:04:00
4:23 AM,42.8,41.0,93,30.06,7.0,West,10.4,18.4,0.00,Rain,Light Rain,270,2013-01-17 10:23:00
4:36 AM,42.8,39.2,87,30.07,10.0,West,11.5,20.7,0.00,,Overcast,270,2013-01-17 10:36:00
4:56 AM,39.9,39.0,97,30.09,10.0,WNW,8.1,17.3,0.00,,Overcast,290,2013-01-17 10:56:00
5:11 AM,39.2,39.2,100,30.08,10.0,West,6.9,-,N/A,,Overcast,280,2013-01-17 11:11:00
5:43 AM,39.2,37.4,93,30.08,10.0,West,9.2,20.7,N/A,,Overcast,270,2013-01-17 11:43:00
5:56 AM,39.0,37.0,93,30.09,10.0,West,6.9,-,N/A,,Overcast,280,2013-01-17 11:56:00
6:56 AM,39.0,36.0,89,30.10,10.0,West,9.2,16.1,N/A,,Overcast,270,2013-01-17 12:56:00
7:51 AM,37.4,35.6,93,30.12,9.0,WNW,6.9,16.1,0.00,,Light Drizzle,300,2013-01-17 13:51:00
7:56 AM,37.9,36.0,93,30.13,10.0,WNW,12.7,23.0,0.00,,Light Drizzle,290,2013-01-17 13:56:00
8:08 AM,37.4,35.6,93,30.14,10.0,WNW,12.7,25.3,0.00,,Overcast,290,2013-01-17 14:08:00
8:56 AM,37.9,33.1,83,30.17,10.0,WNW,13.8,26.5,0.00,,Overcast,300,2013-01-17 14:56:00
9:56 AM,39.0,32.0,76,30.17,10.0,NW,15.0,26.5,N/A,,Overcast,320,2013-01-17 15:56:00
10:56 AM,41.0,32.0,70,30.17,10.0,NW,10.4,28.8,N/A,,Mostly Cloudy,310,2013-01-17 16:56:00
11:56 AM,41.0,32.0,70,30.17,10.0,NW,13.8,23.0,N/A,,Mostly Cloudy,320,2013-01-17 17:56:00
12:56 PM,43.0,33.1,68,30.15,10.0,NW,13.8,27.6,N/A,,Mostly Cloudy,320,2013-01-17 18:56:00
1:56 PM,46.9,34.0,61,30.14,10.0,NNW,20.7,29.9,N/A,,Mostly Cloudy,340,2013-01-17 19:56:00
2:56 PM,48.0,35.1,61,30.16,10.0,NNW,15.0,26.5,N/A,,Mostly Cloudy,330,2013-01-17 20:56:00
3:56 PM,48.9,36.0,61,30.19,10.0,NNW,16.1,23.0,N/A,,Mostly Cloudy,330,2013-01-17 21:56:00
4:56 PM,46.9,36.0,66,30.21,10.0,NNW,12.7,21.9,N/A,,Scattered Clouds,330,2013-01-17 22:56:00
5:56 PM,46.0,35.1,66,30.25,10.0,NW,11.5,21.9,N/A,,Scattered Clouds,320,2013-01-17 23:56:00
6:56 PM,45.0,35.1,68,30.29,10.0,NNW,13.8,21.9,N/A,,Clear,330,2013-01-18 00:56:00
7:56 PM,44.1,35.1,71,30.31,10.0,NNW,13.8,-,N/A,,Clear,330,2013-01-18 01:56:00
8:56 PM,43.0,35.1,74,30.32,10.0,NNW,12.7,20.7,N/A,,Clear,330,2013-01-18 02:56:00
9:56 PM,43.0,35.1,74,30.32,10.0,NNW,10.4,21.9,N/A,,Clear,340,2013-01-18 03:56:00
10:56 PM,43.0,35.1,74,30.30,10.0,NNW,12.7,19.6,N/A,,Clear,340,2013-01-18 04:56:00
11:56 PM,42.1,36.0,79,30.31,10.0,NW,12.7,20.7,N/A,,Clear,320,2013-01-18 05:56:00